Find Starlink 3591

NORAD ID: 51870 Int'l Des: 2022-022 Owner: SPXS Country: US Constellation: starlink operational
LEOCIRCULAR

当前视图

正在加载3D地球...

About Starlink 3591

Starlink 3591 (NORAD 51870) is a starlink constellation satellite (v1.5) launched Mar 3, 2022 by SPXS of US. It operates in LEO, CIRCULAR orbit with a mass of 297.00 kg.

关于 Starlink 3591

正在加载描述...

即将过境

Passes for default location (London). Set your location on the main map for personalized predictions.

高度历史

Loading altitude history...

两行轨道根数

1 51870U 22022U 26171.43002949 .00000720 00000-0 63294-4 0 9994
2 51870 53.1587 267.7842 0001118 90.5222 269.5897 15.08836817238678
Epoch: Jun 20, 2026 • Age: 34 hours

当前状态

高度 544.0 km
速度 7.60 km/s
星下点 46.46°N, 176.55°E
发射日期 Mar 3, 2022
运行时间 4.3 years
类型 internet

技术详情

分类 Payload
质量 297.00 kg
干质量 275.00 kg
总质量 297.00 kg
长度 0.20 m
直径 2.80 m
跨度 9.00 m
形状 Box + pan
制造商 SPXS
平台类型 Starlink
阶段状态 In Orbit
所有者/国家 SPXS/US

Most Searched